Powrót do katalogu

CHINASAT 10

AktywnyŁącznośćGEO
NORAD 37677·PAYLOAD·🇨🇳 China

Wystrzelony Jun 20, 2011 z Xichang Satellite Launch Center

Loading…

TLE

ŚwieżeSource: Space-Track

Epoka: Sep 14, 2026, 14:12 UTC

1 37677U 11026A   26257.59208775 -.00000195  00000-0  00000-0 0  9991
2 37677   1.2721  83.0128 0002582  65.8857 143.2624  1.00272126 55893

Śledź CHINASAT 10 w czasie rzeczywistym z AllMySat

Download on the App Store